Vandalia, OH

11:04 AM EST on February 24, 2017 (GMT -0500)
Cox-Dayton International

Weather History for KDAY - March, 2014

Change the Weather History Date:

Sunday, March 2, 2014

  Actual Average Record
Temperature  
Mean Temperature 23 °F 35 °F  
Max Temperature 30 °F 44 °F 73 °F (1992)
Min Temperature 15 °F 27 °F -7 °F (1980)
Degree Days  
Heating Degree Days 42 30  
Month to date heating degree days 69 60  
Since 1 July heating degree days 4668 4335  
Cooling Degree Days 0 0  
Month to date cooling degree days 0 0  
Year to date cooling degree days 0 0  
Moisture  
Dew Point 18 °F    
Average Humidity 78    
Maximum Humidity 88    
Minimum Humidity 67    
Precipitation  
Precipitation 0.24 in 0.08 in 1.01 in (1945)
Month to date precipitation 0.24 0.17  
Year to date precipitation 5.22 5.12  
Snow  
Snow 2.70 in 0.10 in 2.70 in (2014)
Month to date snowfall 2.7 0.3  
Since 1 July snowfall 48.1 19.6  
Snow Depth 1.00 in    
Sea Level Pressure  
Sea Level Pressure 30.20 in    
Wind  
Wind Speed 12 mph (NNE)    
Max Wind Speed 17 mph    
Max Gust Speed 21 mph    
Visibility 4 miles    
Events Fog , Snow    
T = Trace of Precipitation, MM = Missing Value Source: NWS Daily Summary

Daily Weather History Graph

Daily Weather History Graph

Search for Another Location

Airport or City:

Trip Planner

Search our weather history database for the weather conditions in past years. The results will help you decide how hot, cold, wet, or windy it might be!

Date:

Astronomy

Mar. 02, 2014 Rise Set
Actual Time 7:08 AM EST 6:29 PM EST
Civil Twilight 6:41 AM EST 6:57 PM EST
Nautical Twilight 6:10 AM EST 7:28 PM EST
Astronomical Twilight 5:38 AM EST 7:59 PM EST
Moon 7:39 AM EST (3/2) 8:24 PM EST (3/2)
Length of Visible Light 12h 15m
Length of Day
11h 21m
Waxing Crescent, 3% of the Moon is Illuminated
Mar 2
Waxing Crescent
Mar 8
First Quarter
Mar 16
Full
Mar 23
Last Quarter
Mar 30
New

Hourly Weather History & Observations

Time (EST) Temp. Windchill Dew Point Humidity Pressure Visibility Wind Dir Wind Speed Gust Speed Precip Events Conditions
12:56 AM 28.9 °F 19.8 °F 25.0 °F 85% 30.17 in 3.0 mi NNE 10.4 mph - N/A   Overcast
1:56 AM 28.9 °F 21.1 °F 25.0 °F 85% 30.19 in 3.0 mi North 8.1 mph - N/A   Overcast
2:56 AM 28.9 °F 18.6 °F 25.0 °F 85% 30.18 in 3.0 mi North 12.7 mph - N/A   Overcast
3:44 AM 28.4 °F 18.5 °F 24.8 °F 86% 30.16 in 3.0 mi North 11.5 mph - 0.00 in   Light Freezing Drizzle
3:48 AM 28.4 °F 19.7 °F 24.8 °F 86% 30.16 in 2.5 mi North 9.2 mph - 0.00 in   Light Freezing Drizzle
3:56 AM 28.0 °F 20.0 °F 25.0 °F 88% 30.19 in 2.5 mi North 8.1 mph - 0.00 in   Light Freezing Drizzle
4:56 AM 27.0 °F 18.0 °F 25.0 °F 92% 30.17 in 2.5 mi NNE 9.2 mph - 0.01 in Snow Light Freezing Drizzle
5:09 AM 26.6 °F 16.2 °F 24.8 °F 93% 30.14 in 3.0 mi North 11.5 mph - 0.00 in Snow Light Snow
5:14 AM 26.6 °F 16.2 °F 24.8 °F 93% 30.15 in 3.0 mi North 11.5 mph - 0.00 in Snow Light Snow
5:33 AM 26.6 °F 14.7 °F 24.8 °F 93% 30.16 in 2.0 mi North 15.0 mph - 0.00 in Snow Light Snow
5:47 AM 26.6 °F 14.7 °F 23.0 °F 86% 30.16 in 2.0 mi North 15.0 mph - 0.01 in Snow Light Snow
5:56 AM 26.1 °F 16.2 °F 23.0 °F 88% 30.19 in 1.8 mi NNE 10.4 mph - 0.02 in Snow Light Snow
6:06 AM 26.6 °F 15.2 °F 23.0 °F 86% 30.16 in 2.0 mi NNE 13.8 mph - 0.00 in Snow Light Snow
6:24 AM 24.8 °F 11.9 °F 21.2 °F 86% 30.16 in 1.5 mi NNE 16.1 mph - 0.01 in Snow Light Snow
6:56 AM 25.0 °F 12.6 °F 21.9 °F 88% 30.19 in 1.5 mi NNE 15.0 mph - 0.03 in Snow Light Snow
7:49 AM 24.8 °F 12.9 °F 21.2 °F 86% 30.17 in 1.5 mi NNE 13.8 mph - 0.03 in Snow Light Snow
7:50 AM 24.8 °F 12.9 °F 19.4 °F 80% 30.16 in 1.5 mi NNE 13.8 mph - 0.03 in Snow Light Snow
7:56 AM 24.1 °F 13.1 °F 19.9 °F 84% 30.19 in 1.5 mi NNE 11.5 mph - 0.03 in Snow Light Snow
8:12 AM 24.8 °F 14.6 °F 19.4 °F 80% 30.17 in 1.5 mi NNE 10.4 mph - 0.01 in Snow Light Snow
8:33 AM 23.0 °F 11.1 °F 19.4 °F 86% 30.18 in 2.0 mi NNE 12.7 mph - 0.01 in Snow Light Snow
8:56 AM 23.0 °F 10.1 °F 19.9 °F 88% 30.22 in 2.0 mi NNE 15.0 mph - 0.01 in Snow Light Snow
9:05 AM 23.0 °F 11.7 °F 19.4 °F 86% 30.19 in 1.8 mi NE 11.5 mph - 0.01 in Snow Light Snow
9:18 AM 23.0 °F 10.1 °F 19.4 °F 86% 30.18 in 1.0 mi NNE 15.0 mph - 0.01 in Snow Light Snow
9:24 AM 21.2 °F 8.9 °F 19.4 °F 93% 30.18 in 0.5 mi NE 12.7 mph - 0.02 in Fog , Snow Snow
9:31 AM 21.2 °F 9.5 °F 19.4 °F 93% 30.18 in 0.8 mi NE 11.5 mph - 0.02 in Snow Light Snow
9:56 AM 21.9 °F 11.0 °F 18.0 °F 85% 30.22 in 0.8 mi NE 10.4 mph - 0.04 in Snow Light Snow
10:08 AM 21.2 °F 8.3 °F 17.6 °F 86% 30.18 in 0.5 mi NE 13.8 mph - 0.01 in Fog , Snow Snow
10:22 AM 21.2 °F 7.8 °F 17.6 °F 86% 30.18 in 0.2 mi NNE 15.0 mph - 0.03 in Fog , Snow Heavy Snow
10:30 AM 21.2 °F 8.3 °F 17.6 °F 86% 30.17 in 0.2 mi NNE 13.8 mph - 0.03 in Fog , Snow Snow
10:47 AM 21.2 °F 7.8 °F 17.6 °F 86% 30.19 in 1.0 mi NNE 15.0 mph - 0.06 in Snow Light Snow
10:56 AM 21.0 °F 9.3 °F 17.1 °F 85% 30.23 in 1.8 mi NNE 11.5 mph - 0.06 in Snow Light Snow
11:05 AM 21.2 °F 10.1 °F 17.6 °F 86% 30.19 in 2.5 mi NE 10.4 mph - 0.01 in Snow Light Snow
11:17 AM 21.2 °F 9.5 °F 17.6 °F 86% 30.19 in 4.0 mi North 11.5 mph - 0.01 in Snow Light Snow
11:34 AM 21.2 °F 7.8 °F 17.6 °F 86% 30.19 in 9.0 mi North 15.0 mph - 0.01 in   Overcast
11:56 AM 21.9 °F 9.2 °F 16.0 °F 78% 30.23 in 10.0 mi North 13.8 mph - 0.01 in   Overcast
12:24 PM 23.0 °F 10.6 °F 15.8 °F 74% 30.18 in 10.0 mi NNE 13.8 mph - N/A   Overcast
12:56 PM 23.0 °F 11.7 °F 16.0 °F 74% 30.21 in 9.0 mi North 11.5 mph - N/A   Overcast
1:56 PM 23.0 °F 10.6 °F 15.1 °F 72% 30.21 in 10.0 mi North 13.8 mph - N/A   Overcast
2:56 PM 21.9 °F 11.0 °F 15.1 °F 75% 30.22 in 10.0 mi North 10.4 mph - N/A   Overcast
3:56 PM 21.9 °F 9.2 °F 14.0 °F 72% 30.23 in 10.0 mi NNE 13.8 mph - N/A   Overcast
4:56 PM 19.9 °F 5.7 °F 12.0 °F 71% 30.23 in 10.0 mi NNE 16.1 mph - N/A   Overcast
5:52 PM 19.4 °F 6.0 °F 12.2 °F 74% 30.20 in 1.8 mi NNE 13.8 mph - 0.00 in Snow Light Snow
5:56 PM 18.0 °F 4.2 °F 12.0 °F 78% 30.25 in 1.0 mi NNE 13.8 mph - 0.00 in Snow Light Snow
6:07 PM 17.6 °F 5.0 °F 12.2 °F 79% 30.21 in 0.8 mi NNE 11.5 mph - 0.00 in Snow Light Snow
6:19 PM 17.6 °F 5.7 °F 12.2 °F 79% 30.20 in 1.0 mi NNE 10.4 mph - 0.01 in Snow Light Snow
6:45 PM 17.6 °F 4.3 °F 12.2 °F 79% 30.21 in 3.0 mi NNE 12.7 mph - 0.01 in Snow Light Snow
6:56 PM 17.1 °F 3.6 °F 12.0 °F 81% 30.27 in 3.0 mi NNE 12.7 mph - 0.01 in Snow Light Snow
7:15 PM 17.6 °F 2.7 °F 12.2 °F 79% 30.21 in 1.8 mi NNE 16.1 mph - 0.01 in Snow Light Snow
7:26 PM 17.6 °F 4.3 °F 12.2 °F 79% 30.22 in 1.5 mi NNE 12.7 mph - 0.01 in Snow Light Snow
7:56 PM 16.0 °F 1.1 °F 12.0 °F 84% 30.25 in 2.0 mi NNE 15.0 mph - 0.01 in Snow Light Snow
8:07 PM 15.8 °F 2.7 °F 12.2 °F 86% 30.21 in 3.0 mi NNE 11.5 mph - 0.00 in Snow Light Snow
8:56 PM 16.0 °F 1.7 °F 9.0 °F 74% 30.27 in 10.0 mi NNE 13.8 mph - 0.01 in   Overcast
9:56 PM 15.1 °F -0.1 °F 7.0 °F 70% 30.28 in 10.0 mi North 15.0 mph - N/A   Overcast
10:56 PM 15.1 °F 2.5 °F 7.0 °F 70% 30.29 in 10.0 mi NNE 10.4 mph - N/A   Overcast
11:56 PM 15.1 °F 1.8 °F 7.0 °F 70% 30.29 in 10.0 mi NNE 11.5 mph - N/A   Overcast